Погода Мыс Шведский

Погода Мыс Шведский : погода сейчас, прогноз погоды и архив. Всё, что Вы хотите узнать о погоде Мыс Шведский!

Хотите узнать прогноз погоды Мыс Шведский? Тогда Вам сюда: Погода Мыс Шведский

Поиск расширенной информации на нашем сайте:

Другие новости

Новости СМИ2

Главная страница сайта

Новости сайта

03.07.2017

Напоминаем, что на нашем специализированном сайте Метеоцентр.Азия вы можете получить высокодетализированные автоматические прогнозы погоды по пунктам России, СНГ и мира в авиационном формате (включающие направление и скорость ветра, видимость, явления погоды, количество и форму облачности, нижнюю и верхнюю границу облачности).

Рекомендуем: Радуга бисера кроше наборы для вышивания бисером иконы.

Погода Мыс Шведский - сегодня

Время (UTC), дата Ветер
(°,м/с) 
Видим.   Явления Облачность Т
(°С)
Тd
(°С)
f(%) Тe
(°С)
Pmin
(гПа)
dP
(гПа)
Po
(мм)
O2
(г/м3)
Тmin Tmax R s Состояние
почвы
12 13.04.18 280 (З) 10 км    10/10 600 м 
[Sc]
-5.5 -7.3 87 -10  1018.2  -0.2  763  315           
03 14.04.18 310 (СЗ) 11-14{18}  10 км    10/10 300 м 
[Sc]
+0.4 -0.4 94 -5  1001  -0.5  750  302  -4.5       
06 14.04.18 310 (СЗ) 8-12{14}  10 км    10/10 600 м 
[Sc]
+0.3 -0.3 96 -4  1000.7  -0.3  750  302           
09 14.04.18 300 (СЗ) 8-11{12}  10 км    9/9 300 м 
[Sc]
+0.3 -0.3 96 -4  1000.1  -0.6  750  302           
15 14.04.18 320 (СЗ) 11-13{15}  10 км    10/10 300 м 
[Sc]
-2.6 -4.5 87 -8  1002.1  1.1  751  306    +0.5       
03 15.04.18 330 (СЗ) 7{14}  10 км  {ливн. осадки}  6/3 300 м верхняя 
[Sc|Cs]
-8 -9.4 90 -14  1005.3  1.8  753  314    -8.2     
06 15.04.18 330 (СЗ) 10 км  {ливн. осадки}  6/0 средняя, верхняя 
[Ac trans|Cs]
-7.1 -8.8 88 -12  1007  1.7  755  313           
09 15.04.18 330 (СЗ) 8{11}  10 км    8/4 600 м средняя 
[Sc|Ac trans]
-5.3 -8.2 80 -11  1008.9  1.9  756  312           
15 15.04.18 320 (СЗ) 6{12}  4000 м  слаб. ливневой снег  10/10 300 м кучево-дожд. 
[Cb cap]
-6.3 -7.1 94 -11  1009.9  0.1  757  313    -4.8  0.2     
18 15.04.18 300 (СЗ) 10 км  {ливн. осадки}  6/6 600 м 
[Sc]
-10.3 -10.9 95 -15  1009.8  -0.2  757  318           
21 15.04.18 330 (СЗ) 10 км    6/6 600 м 
[Sc]
-8.9 -9.6 95 -14  1010.3  0.6  757  316           
00 16.04.18 350 (С) 10 км    10/10 600 м 
[Sc]
-12.1 -13.4 90 -18  1011.7  1.4  758  321           
06 16.04.18 350 (С) 20000 м    ясно 
-13.1 -15.1 85 -18  1016  2.2  761  324           
09 16.04.18 340 (С) 20000 м    1/1 600 м 
[Sc]
-11.7 -13.7 85 -16  1018.3  2.3  763  323           
12 16.04.18 320 (СЗ) 20000 м    ясно 
-10.8 -13.6 80 -15  1019.5  1.2  764  322           
15 16.04.18 270 (З) 20000 м    ясно 
-13.5 -15.5 85 -18  1019.4  -0.1  764  325    -10.6       
18 16.04.18 240 (ЮЗ) 20000 м    3/3 600 м 
[Sc]
-14.7 -16.7 85 -20  1018.9  -0.5  764  327           
00 17.04.18 240 (ЮЗ) 10 км    10/10 600 м 
[Sc]
-10.5 -11.1 95 -14  1018.1  -0.1  763  321           
06 17.04.18 280 (З) 10 км    6/6 600 м 
[Sc]
-7.7 -9.1 90 -9  1018.8  0.6  764  318           
09 17.04.18 250 (З) 20000 м    6/4 600 м верхняя 
[Sc|Cs]
-6.5 -7.7 91 -10  1019.3  0.5  764  316           
12 17.04.18 260 (З) 20000 м    6/3 600 м верхняя 
[Sc|Cs]
-6.1 -7.2 92 -10  1019.4  0.1  764  316           
03 18.04.18 240 (ЮЗ) 13-15{18}  0200 м  сильная метель  10/10 300 м 
[Sc]
-5.5 -6.2 95 -13  1004.9  -4.3  753  310  -8.8         
15 18.04.18 290 (З) 10-12{19}  2000 м  метель  10/10 300 м 
[Sc]
-3.9 -4.4 96 -10  1003.4  0.5  752  308    -0.1  0.9     
03 19.04.18 300 (СЗ) 8{11}  10 км  позёмок  10/10 300 м 
[Sc]
-8.3 -8.9 95 -14  1002.5  -0.9  751  313  -9.2       
06 19.04.18 320 (СЗ) 10 км  позёмок  10/10 300 м 
[Sc]
-7.4 -8 95 -13  1002.6  0.1  751  312           
Время (UTC), дата Ветер
(°,м/с) 
Видим.   Явления Облачность Т
(°С)
Тd
(°С)
f(%) Тe
(°С)
Pmin
(гПа)
dP
(гПа)
Po
(мм)
O2
(г/м3)
Тmin Tmax R s Состояние
почвы

Для получения пояснительной информации подведите курсор к названию столбца.

ПОГОДА Мыс Шведский - архив

Всё, что Вы хотите узнать о погоде Мыс Шведский - удобно и подробно!

Выберите нужную дату (начиная с 1 января 2015* года) и нажмите кнопку "Найти".
Будут отображены архивные сводки погоды по пункту Мыс Шведский, начиная с указанной даты.


Отображать данные в формате CSV (для использования в таблицах Excel)


Внимание! Наш архив погоды предназначен исключительно для личного некоммерческого использования в познавательных целях. Если Вам необходимы официальные справки о состоянии погоды (для производственных, юридических, коммерческих и т.п. целей), обращайтесь в органы Росгидромета.

*Примечание: данная дата относится к архиву по метеостанциям СССР (Россия, СНГ, Балтия).
Архив по метеостанциям Зарубежной Европы и Азии (кроме Китая) хранится 10 дней, по другим регионам земного шара (Китай, Африка, Америка, Австралия, Океания) - 1 день.

Мыс Шведский - район местоположения метеостанции


Название, широта, долгота, высота метеостанции:
Мыс Шведский 68.6°ш. 56.6°д. 4 м над ур. моря [Российская Федерация]

Дополнительная информация

В oтличие oт бoльшинства пoгoдных сайтoв мы публикуем пoдрoбную метеoинфoрмацию в детальнoм прoфессиoнальнoм фoрмате.

Характеристики температуры и влажнoсти вoздуха измеряются на высoте 2 м в тени вдали oт зданий и деревьев.
Скoрoсть ветра измеряется на высoте 10 м (на урoвне рoста челoвека скoрoсть ветра ниже в 1.5-2 раза). Если метеoстанция нахoдится в гoрoде или в лесу, тo скoрoсть ветра занижена на 2-4 м/с пo сравнению с oткрытым местoм. Скoрoсть ветра над акватoриями крупных рек и oзёр, а также на вершинах хoлмoв на 2-5 м/с выше, чем в oбычных услoвиях.
Атмoсфернoе давление в разных тoчках местнoсти мoжет значительнo oтличаться oт давления на метеoстанции, в зависимoсти oт услoвий рельефа (при пoдъёме на 10 м давление пoнижается примернo на 1 мм рт.ст.).